This is the latest recevied weather packets stored in our database for station/object KC3BHK-2. If no packets are shown the sender has not sent any weather packets the latest 1 day(s).
| Time | Temp. | Humidity | Pressure | Rain* | Wind** | Luminosity | Snow |
|---|---|---|---|---|---|---|---|
| 1836274531 | 20° C | - | - | 0 mm | 0 m/s | - | - |
| 1836274391 | 20.56° C | - | - | 0 mm | 0 m/s | - | - |
| 1836274226 | 20° C | - | - | 0 mm | 0 m/s | - | - |
| 1836273921 | 19.44° C | - | - | 0 mm | 0 m/s | - | - |
| 1778039973 | 20.56° C | - | - | 0 mm | 3.13 m/s, 143° | - | - |
| 1778039668 | 20.56° C | - | - | 0 mm | 1.79 m/s, 156° | - | - |
| 1778039364 | 20.56° C | - | - | 0 mm | 1.79 m/s, 177° | - | - |
| 1778039059 | 20.56° C | - | - | 0 mm | 4.02 m/s, 159° | - | - |
| 1778038752 | 20.56° C | - | - | 0 mm | 3.58 m/s, 141° | - | - |
| 1778038445 | 20.56° C | - | - | 0 mm | 4.02 m/s, 138° | - | - |
| 1778038140 | 20.56° C | - | - | 0 mm | 3.13 m/s, 179° | - | - |
| 1778037836 | 20.56° C | - | - | 0 mm | 2.68 m/s, 132° | - | - |
| 1778037531 | 20.56° C | - | - | 0 mm | 2.68 m/s, 132° | - | - |
| 1778037226 | 20.56° C | - | - | 0 mm | 3.58 m/s, 183° | - | - |
| 1778036919 | 20.56° C | - | - | 0 mm | 2.24 m/s, 143° | - | - |
| 1778036614 | 21.11° C | - | - | 0 mm | 4.02 m/s, 148° | - | - |
| 1778036309 | 20.56° C | - | - | 0 mm | 2.68 m/s, 183° | - | - |
| 1778036005 | 20.56° C | - | - | 0 mm | 4.47 m/s, 179° | - | - |
| 1778035700 | 21.11° C | - | - | 0 mm | 2.24 m/s, 172° | - | - |
| 1778035395 | 20.56° C | - | - | 0 mm | 1.79 m/s, 148° | - | - |
| 1778035088 | 20.56° C | - | - | 0 mm | 4.02 m/s, 179° | - | - |
| 1778034783 | 21.11° C | - | - | 0 mm | 3.13 m/s, 174° | - | - |
| 1778034479 | 20.56° C | - | - | 0 mm | 2.68 m/s, 159° | - | - |
| 1778034174 | 21.11° C | - | - | 0 mm | 1.79 m/s, 155° | - | - |
| 1778033870 | 21.11° C | - | - | 0 mm | 1.79 m/s, 183° | - | - |
* Rain latest hour (hover to see other rain measurements)
** Current wind speed in m/s (hover to see current wind gust speed)